User: anonymous   Login
Location: Newark
(7.0858°N, 171.3717°E)
Time: 17:40:18
(UTC+00:00)
Language:

Transit 2A - Orbit

View from above orbital plane
View from above orbital plane
View from above satellite
View from above satellite

Ground track
Ground track

The orbit data is extracted from the following two-line orbital elements,

1 00045U 60007A   20338.61413073 -.00000045  00000-0  15776-4 0  9993
2 00045  66.6944 295.0871 0257390 194.1114 165.2704 14.33697488 90080
Epoch (UTC): 03 December 2020 14:44:20
Eccentricity: 0.0257390
inclination: 66.6944°
perigee height: 595 km
apogee height: 963 km
right ascension of ascending node: 295.0871°
argument of perigee: 194.1114°
revolutions per day: 14.33697488
mean anomaly at epoch: 165.2704°
orbit number at epoch: 9008

The dashed part of the orbit path shows where the satellite is in the earth's shadow,  

DLR